#timestamp,LO_Frequency,Hit,StdDev 
1641488415.0,286047012.2,N
1641488415.9,286047012.2,N
1641488435.8,286047008.7,N
1641488455.6,286047003.8,N
1641488475.5,286047003.3,N
1641488495.3,286047005.9,N
1641488515.1,286047003.4,N
1641488535.9,286047005.8,N
1641488555.7,286047005.3,N
1641488575.5,286047004.7,N
1641488595.4,286047005.5,N
1641488615.2,286047007.5,N
1641488635.1,286047005.8,N
1641488636.0,286047005.8,N
1641488655.8,286047003.5,N
1641488675.6,286047000.4,N
1641488695.5,286046999.2,N
1641488715.3,286046999.5,N
1641488735.1,286046999.4,N
1641488755.9,286046998.7,N
1641488775.7,286047001.1,N
1641488795.6,286046998.2,N
1641488815.4,286046998.5,N
1641488835.2,286047000.0,N
1641488855.1,286047002.5,N
1641488856.0,286047002.5,N
1641488875.8,286047001.9,N
1641488895.6,286047002.1,N
1641488915.5,286046999.7,N
1641488935.3,286047002.2,N
1641488955.2,286046999.9,N
1641488975.9,286046996.9,N
1641488995.7,286047001.1,N
1641489015.6,286046998.4,N
1641489035.4,286046998.1,N
1641489055.2,286046998.8,N
1641489075.1,286046998.2,N
1641489076.0,286046998.2,N
1641489095.8,286046998.9,N
1641489115.7,286047000.7,N
1641489135.5,286046998.6,N
1641489155.3,286047000.4,N
1641489175.2,286046999.9,N
1641489195.0,286047002.7,N
1641489195.9,286047002.7,N
1641489215.8,286046999.7,N
1641489235.6,286047002.5,N
1641489255.4,286047002.6,N
1641489275.3,286047002.3,N
1641489295.1,286047002.7,N
1641489315.9,286047002.5,N
1641489335.7,286047002.5,N
1641489355.5,286047002.2,N
1641489375.4,286047002.0,N
1641489395.2,286047002.2,N
1641489415.0,286047002.5,N
1641489415.9,286047002.5,N
1641489435.8,286047002.3,N
1641489455.6,286047002.7,N
1641489475.5,286047001.3,N
1641489495.3,286047000.2,N
1641489515.1,286047002.6,N
1641489535.9,286046999.8,N
1641489555.7,286046999.8,N
1641489575.6,286047000.6,N
1641489595.4,286047000.1,N
1641489615.2,286047000.0,N
1641489635.1,286047000.2,N
1641489636.0,286047000.2,N
1641489655.8,286047000.0,N
1641489675.6,286047002.5,N
1641489695.5,286047002.2,N
1641489715.3,286047002.5,N
1641489735.2,286046999.8,N
1641489755.9,286047001.3,N
1641489775.7,286047001.3,N
1641489795.6,286047003.6,Y
1641489815.4,286047002.8,P
1641489835.2,286047000.5,N
1641489855.1,286047000.4,N
1641489856.0,286047000.4,N
1641489875.8,286047002.8,N
1641489895.7,286047000.9,N
1641489915.5,286046999.8,N
1641489935.3,286047000.7,N
1641489955.2,286047000.7,N
1641489975.0,286046998.2,N
1641489975.9,286046998.2,N
1641489995.7,286047001.1,N
1641490015.6,286047000.7,N
1641490035.4,286047000.8,N
1641490055.3,286047001.2,N
1641490075.1,286046999.8,N
1641490076.0,286046999.8,N
1641490095.8,286047000.7,N
1641490115.7,286046999.0,N
1641490135.5,286046999.5,N
1641490155.3,286046998.3,N
1641490175.2,286046996.5,N
1641490195.0,286046999.3,N
1641490195.9,286046999.3,N
1641490215.8,286046999.0,N
1641490235.6,286046996.7,N
1641490255.4,286046999.1,N
1641490275.3,286046998.6,N
1641490295.1,286046998.2,N
1641490315.8,286047001.0,N
1641490335.7,286047000.3,N
1641490355.5,286047000.4,N
1641490375.4,286047002.8,N
1641490395.2,286047000.0,N
1641490415.0,286046998.1,N
1641490415.9,286046998.1,N
1641490435.8,286047000.3,N
1641490455.6,286047003.1,N
1641490475.5,286047001.3,N
1641490495.3,286047002.6,N
1641490515.1,286047002.6,N
1641490535.9,286047001.5,N
1641490555.7,286047002.1,N
1641490575.5,286047002.6,N
1641490595.4,286047001.3,N
1641490615.2,286047001.9,N
1641490635.0,286047002.8,N
1641490636.0,286047002.8,N
1641490655.8,286047000.0,N
1641490675.6,286047002.4,N
1641490695.5,286047000.4,N
1641490715.3,286047000.7,N
1641490735.1,286047000.3,N
1641490755.9,286047000.1,N
1641490775.7,286047001.5,N
1641490795.6,286047002.6,N
1641490815.4,286047002.7,N
1641490835.2,286047002.6,N
1641490855.1,286047002.0,N
1641490856.0,286047002.0,N
1641490875.8,286047001.5,N
1641490895.6,286047000.0,N
1641490915.5,286046999.8,N
1641490935.3,286047000.5,N
1641490955.2,286047000.5,N
1641490975.9,286047000.2,N
1641490995.7,286047001.0,N
1641491015.6,286047000.4,N
1641491035.4,286047000.0,N
1641491055.3,286047001.5,N
1641491075.1,286047003.9,Y
1641491076.0,286047003.9,P
1641491095.8,286046999.8,N
1641491115.7,286047000.6,N
1641491135.5,286047000.7,N
1641491155.3,286046998.1,N
1641491175.2,286047000.4,N
1641491195.0,286047000.6,N
1641491195.9,286047000.6,N
1641491215.8,286047001.0,N
1641491235.6,286047002.4,N
1641491255.4,286047000.3,N
1641491275.3,286047002.8,N
1641491295.1,286047001.1,N
1641491315.8,286047000.8,N
1641491335.7,286046998.2,N
1641491355.5,286047001.2,N
1641491375.4,286047000.9,N
1641491395.2,286047001.2,N
1641491415.0,286047000.2,N
1641491415.9,286047000.2,N
1641491435.8,286047000.2,N
1641491455.6,286047000.1,N
1641491475.4,286047002.2,N
1641491495.3,286047002.3,N
1641491515.1,286047000.6,N
1641491535.9,286047000.0,N
1641491555.7,286046999.8,N
1641491575.5,286047000.0,N
1641491595.4,286047000.7,N
1641491615.2,286047000.3,N
1641491635.0,286047000.0,N
1641491636.0,286047000.0,N
1641491655.8,286047000.0,N
1641491675.6,286047000.3,N
1641491695.5,286047000.4,N
1641491715.3,286047000.9,N
1641491735.1,286047001.0,N
1641491755.9,286047001.0,N
1641491775.7,286047002.0,N
1641491795.6,286046998.1,N
1641491815.4,286046998.3,N
1641491835.2,286046996.5,Y
1641491855.1,286046999.5,P
1641491856.0,286046999.5,N
1641491875.8,286046997.9,P
1641491895.7,286046997.8,N
1641491915.5,286046997.4,N
1641491935.3,286046995.4,Y
1641491955.2,286046995.1,P
1641491975.0,286046997.8,N
1641491975.9,286046997.8,N
1641491995.7,286046997.2,N
